Location: Home
(42.5358°N, 72.7383°W)
Time: 22:18:10
(UTC-05:00)

Vanguard 1 Rocket - Pass Details

Date: 03 December 2021
Orbit: 651 x 4225 km, 34.3° (Epoch: 26 January)

Event Time Altitude Azimuth Distance (km) Brightness Sun altitude
Exits shadow 02:15:11 45° 132° (SE) 3,091 9.9 -52.0°
Drops below altitude 10° 02:30:56 10° 87° (E) 6,616 12.2 -49.3°
Sets 02:37:17 0° 83° (E) 8,047 12.9 -48.1°
